KD4TJG Weather Reports


Display with metric or nautical units.
time (UTC)temp
F
wind
direction
speed
MPH
gust
MPH
rain 1hr
in
rain 24hr
in
rain mn
in
humidity
%
barometer
mb
20260902150053 90 149 2.0 8.0 0.00 0.00 0.00 58 1019.6
20260902145606 90 70 3.0 7.0 0.00 0.00 0.00 61 1021.7
20260902145525 90 85 2.0 8.0 0.00 0.00 0.00 59 1019.6
20260902145030 89 91 3.0 8.0 0.00 0.00 0.00 59 1019.6
20260902144549 89 127 1.0 7.0 0.00 0.00 0.00 61 1019.5
20260902144544 89 105 1.0 7.0 0.00 0.00 0.00 61 1021.5
20260902144024 89 350 2.0 6.0 0.00 0.00 0.00 62 1019.6
20260902143526 89 341 1.0 4.0 0.00 0.00 0.00 63 1019.6
20260902143517 89 341 1.0 3.0 0.00 0.00 0.00 63 1021.6
20260902143041 88 45 1.0 3.0 0.00 0.00 0.00 64 1019.7
20260902142524 87 303 0.0 2.0 0.00 0.00 0.00 66 1019.4
20260902142500 88 303 0.0 1.0 0.00 0.00 0.00 66 1021.5
20260902142028 87 343 0.0 3.0 0.00 0.00 0.00 65 1019.4
20260902141549 87 349 0.0 3.0 0.00 0.00 0.00 66 1019.5
20260902141459 87 320 0.0 1.0 0.00 0.00 0.00 66 1021.5
20260902141027 86 0 1.0 3.0 0.00 0.00 0.00 66 1019.4
20260902140525 86 347 0.0 2.0 0.00 0.00 0.00 66 1019.4
20260902140510 86 18 0.0 1.0 0.00 0.00 0.00 67 1021.4
20260902140045 86 281 0.0 2.0 0.00 0.00 0.00 69 1019.3
20260902135525 85 296 0.0 1.0 0.00 0.00 0.00 72 1021.4
20260902135523 85 296 0.0 2.0 0.00 0.00 0.00 72 1019.4
20260902135024 85 0 0.0 2.0 0.00 0.00 0.00 74 1019.4
20260902134546 84 0 0.0 2.0 0.00 0.00 0.00 75 1019.3
20260902134511 84 137 0.0 1.0 0.00 0.00 0.00 75 1021.4
20260902134025 83 151 0.0 2.0 0.00 0.00 0.00 76 1019.4
20260902133526 83 276 0.0 3.0 0.00 0.00 0.00 77 1019.3
20260902133507 83 276 0.0 1.0 0.00 0.00 0.00 77 1021.3
20260902133100 82 0 1.0 3.0 0.00 0.00 0.00 77 1019.4
20260902132530 81 0 0.0 2.0 0.00 0.00 0.00 78 1019.4
20260902132521 82 141 0.0 0.0 0.00 0.00 0.00 78 1021.4
20260902132024 81 141 0.0 3.0 0.00 0.00 0.00 79 1019.3
20260902131548 81 149 1.0 3.0 0.00 0.00 0.00 80 1019.4
20260902131452 81 149 0.0 1.0 0.00 0.00 0.00 80 1021.6
20260902131024 80 0 0.0 2.0 0.00 0.00 0.00 82 1019.5
20260902130523 79 96 0.0 1.0 0.00 0.00 0.00 83 1019.5
20260902130517 79 96 0.0 0.0 0.00 0.00 0.00 83 1021.5
20260902130045 78 0 0.0 2.0 0.00 0.00 0.00 83 1019.5
20260902125526 78 0 0.0 2.0 0.00 0.00 0.00 85 1019.6
20260902125027 77 0 0.0 2.0 0.00 0.00 0.00 86 1019.6
20260902124541 76 0 0.0 1.0 0.00 0.00 0.00 87 1019.7
20260902124335 76 96 0.0 0.0 0.00 0.00 0.00 87 1021.6
20260902124024 75 0 0.0 1.0 0.00 0.00 0.00 88 1019.6
20260902123524 74 0 0.0 1.0 0.00 0.00 0.00 88 1019.6
20260902123341 75 96 0.0 0.0 0.00 0.00 0.00 88 1021.6
20260902123048 74 0 0.0 1.0 0.00 0.00 0.00 88 1019.6
20260902122528 73 0 0.0 1.0 0.00 0.00 0.00 88 1019.6
20260902122025 72 0 0.0 1.0 0.00 0.00 0.00 88 1019.7
20260902121546 71 0 0.0 1.0 0.00 0.00 0.00 88 1019.7
20260902121218 71 96 0.0 0.0 0.00 0.00 0.00 88 1021.6
20260902121024 71 0 0.0 1.0 0.00 0.00 0.00 88 1019.6
20260902120523 70 0 0.0 1.0 0.00 0.00 0.00 88 1019.6
20260902120206 71 186 0.0 0.0 0.00 0.00 0.00 88 1021.5
20260902120046 70 0 0.0 0.0 0.00 0.00 0.00 88 1019.5
20260902115525 70 0 0.0 0.0 0.00 0.00 0.00 88 1019.5
20260902115206 70 186 0.0 0.0 0.00 0.00 0.00 88 1021.4
20260902115025 70 0 0.0 1.0 0.00 0.00 0.00 88 1019.3
20260902114546 69 0 0.0 1.0 0.00 0.00 0.00 88 1019.3
20260902114133 70 186 0.0 0.0 0.00 0.00 0.00 88 1021.3
20260902114023 69 0 0.0 0.0 0.00 0.00 0.00 88 1019.3
20260902113524 69 0 0.0 1.0 0.00 0.00 0.00 88 1019.2
20260902113127 69 186 0.0 0.0 0.00 0.00 0.00 88 1021.2
20260902113046 68 0 0.0 1.0 0.00 0.00 0.00 88 1019.2
20260902112523 69 0 0.0 0.0 0.00 0.00 0.00 88 1019.1
20260902112145 69 186 0.0 0.0 0.00 0.00 0.00 88 1021.1
20260902112024 68 0 0.0 0.0 0.00 0.00 0.00 88 1019.0
20260902111541 68 0 0.0 0.0 0.00 0.00 0.00 88 1018.9
20260902111139 68 186 0.0 0.0 0.00 0.00 0.00 88 1021.0
20260902111024 68 0 0.0 0.0 0.00 0.00 0.00 88 1018.9
20260902110524 68 0 0.0 0.0 0.00 0.00 0.00 88 1019.0
20260902110125 69 186 0.0 0.0 0.00 0.00 0.00 88 1021.0
20260902110048 69 0 0.0 0.0 0.00 0.00 0.00 88 1019.0
20260902105524 68 0 0.0 1.0 0.00 0.00 0.00 88 1019.0
20260902105140 69 186 0.0 0.0 0.00 0.00 0.00 88 1021.0
20260902105025 68 0 0.0 1.0 0.00 0.00 0.00 88 1018.9
20260902104550 68 0 0.0 0.0 0.00 0.00 0.00 88 1018.9
20260902104138 69 186 0.0 0.0 0.00 0.00 0.00 88 1021.0
20260902104028 68 0 0.0 0.0 0.00 0.00 0.00 88 1019.0
20260902103525 68 0 0.0 0.0 0.00 0.00 0.00 88 1018.9
20260902103143 69 186 0.0 0.0 0.00 0.00 0.00 88 1021.0
20260902103047 69 0 0.0 0.0 0.00 0.00 0.00 88 1018.9
20260902102526 69 0 0.0 0.0 0.00 0.00 0.00 88 1019.0
20260902102140 69 186 0.0 0.0 0.00 0.00 0.00 88 1021.0
20260902102025 68 0 0.0 0.0 0.00 0.00 0.00 88 1018.9
20260902101557 69 0 0.0 0.0 0.00 0.00 0.00 88 1018.9
20260902101026 69 0 0.0 0.0 0.00 0.00 0.00 88 1018.8
20260902100524 69 0 0.0 0.0 0.00 0.00 0.00 88 1018.8
20260902100052 69 0 0.0 0.0 0.00 0.00 0.00 88 1018.8
20260902100011 69 186 0.0 0.0 0.00 0.00 0.00 88 1020.9
20260902095524 68 0 0.0 0.0 0.00 0.00 0.00 88 1018.8
20260902095024 69 0 0.0 0.0 0.00 0.00 0.00 88 1018.8
20260902095001 69 186 0.0 0.0 0.00 0.00 0.00 88 1020.9
20260902094544 69 0 0.0 0.0 0.00 0.00 0.00 88 1018.7
20260902094024 69 0 0.0 0.0 0.00 0.00 0.00 88 1018.8
20260902093934 70 186 0.0 0.0 0.00 0.00 0.00 88 1020.8
20260902093525 69 0 0.0 0.0 0.00 0.00 0.00 88 1018.8
20260902093052 69 0 0.0 0.0 0.00 0.00 0.00 88 1018.8
20260902092922 70 186 0.0 0.0 0.00 0.00 0.00 88 1020.8
20260902092524 69 0 0.0 0.0 0.00 0.00 0.00 88 1018.7
20260902092027 69 0 0.0 0.0 0.00 0.00 0.00 88 1018.8
20260902091928 70 186 0.0 0.0 0.00 0.00 0.00 88 1020.8
20260902091555 69 0 0.0 0.0 0.00 0.00 0.00 88 1018.7
20260902091025 69 0 0.0 0.0 0.00 0.00 0.00 88 1018.8
20260902090935 70 186 0.0 0.0 0.00 0.00 0.00 88 1020.8
20260902090524 69 0 0.0 0.0 0.00 0.00 0.00 88 1018.8
20260902090055 69 0 0.0 0.0 0.00 0.00 0.00 88 1018.7
20260902085937 70 186 0.0 0.0 0.00 0.00 0.00 88 1020.8
20260902085524 70 0 0.0 1.0 0.00 0.00 0.00 88 1018.7
20260902085024 70 0 0.0 1.0 0.00 0.00 0.00 88 1018.6
20260902084905 70 186 0.0 0.0 0.00 0.00 0.00 88 1020.7
20260902084552 70 0 0.0 1.0 0.00 0.00 0.00 88 1018.6
20260902084027 70 0 0.0 0.0 0.00 0.00 0.00 88 1018.6
20260902083859 70 186 0.0 0.0 0.00 0.00 0.00 88 1020.7
20260902083527 70 0 0.0 0.0 0.00 0.00 0.00 88 1018.6
20260902083052 70 0 0.0 0.0 0.00 0.00 0.00 88 1018.5
20260902082525 70 0 0.0 1.0 0.00 0.00 0.00 88 1018.6
20260902082025 70 0 0.0 1.0 0.00 0.00 0.00 88 1018.6
20260902081746 71 186 0.0 0.0 0.00 0.00 0.00 88 1020.5
20260902081608 70 0 0.0 1.0 0.00 0.00 0.00 88 1018.4
20260902081024 70 0 0.0 0.0 0.00 0.00 0.00 88 1018.4
20260902080717 71 186 0.0 0.0 0.00 0.00 0.00 88 1020.4
20260902080524 70 0 0.0 1.0 0.00 0.00 0.00 88 1018.5
20260902080046 70 0 0.0 1.0 0.00 0.00 0.00 88 1018.3
20260902075740 71 186 0.0 0.0 0.00 0.00 0.00 88 1020.4
20260902075523 70 0 0.0 0.0 0.00 0.00 0.00 88 1018.5
20260902075023 70 0 0.0 1.0 0.00 0.00 0.00 88 1018.4
20260902074745 71 186 0.0 0.0 0.00 0.00 0.00 88 1020.5
20260902074555 70 0 0.0 1.0 0.00 0.00 0.00 88 1018.4
20260902074025 70 186 0.0 1.0 0.00 0.00 0.00 88 1018.5
20260902073715 71 181 0.0 0.0 0.00 0.00 0.00 88 1020.6
20260902073525 70 0 0.0 1.0 0.00 0.00 0.00 88 1018.5
20260902073047 71 0 0.0 0.0 0.00 0.00 0.00 88 1018.5
20260902072525 71 0 0.0 1.0 0.00 0.00 0.00 88 1018.5
20260902072026 71 0 0.0 1.0 0.00 0.00 0.00 88 1018.6
20260902071559 71 0 0.0 1.0 0.00 0.00 0.00 88 1018.6
20260902071025 71 0 0.0 0.0 0.00 0.00 0.00 88 1018.5
20260902070524 71 0 0.0 0.0 0.00 0.00 0.00 87 1018.5
20260902070336 71 181 0.0 0.0 0.00 0.00 0.00 87 1020.6
20260902070044 71 0 0.0 0.0 0.00 0.00 0.00 87 1018.6
20260902065521 71 0 0.0 0.0 0.00 0.00 0.00 87 1018.5
20260902065307 72 181 0.0 0.0 0.00 0.00 0.00 87 1020.6
20260902065024 71 0 0.0 0.0 0.00 0.00 0.00 88 1018.6
20260902064541 71 0 0.0 0.0 0.00 0.00 0.00 87 1018.5
20260902064311 72 181 0.0 0.0 0.00 0.00 0.00 87 1020.6
20260902064024 71 0 0.0 0.0 0.00 0.00 0.00 87 1018.5
20260902063528 72 0 0.0 0.0 0.00 0.00 0.00 87 1018.5
20260902063334 72 181 0.0 0.0 0.00 0.00 0.00 87 1020.6
20260902063051 72 0 0.0 0.0 0.00 0.00 0.00 87 1018.5
20260902062525 71 0 0.0 1.0 0.00 0.00 0.00 87 1018.6
20260902062313 72 181 0.0 0.0 0.00 0.00 0.00 87 1020.6
20260902062025 71 0 0.0 1.0 0.00 0.00 0.00 87 1018.6
20260902061549 72 0 0.0 1.0 0.00 0.00 0.00 87 1018.6
20260902061303 72 181 0.0 0.0 0.00 0.00 0.00 87 1020.5
20260902061025 72 0 0.0 0.0 0.00 0.00 0.00 87 1018.5
20260902060523 72 0 0.0 0.0 0.00 0.00 0.00 87 1018.6
20260902060233 72 181 0.0 0.0 0.00 0.00 0.00 87 1020.6
20260902055525 72 0 0.0 0.0 0.00 0.00 0.00 87 1018.5
20260902055223 73 181 0.0 0.0 0.00 0.00 0.00 87 1020.5
20260902055026 72 0 0.0 1.0 0.00 0.00 0.00 87 1018.5
20260902054549 72 0 0.0 1.0 0.00 0.00 0.00 87 1018.5
20260902054024 72 0 0.0 1.0 0.00 0.00 0.00 87 1018.5
20260902053526 72 0 0.0 1.0 0.00 0.00 0.00 87 1018.4
20260902053042 73 181 0.0 0.0 0.00 0.00 0.00 87 1020.4
20260902052529 72 0 0.0 0.0 0.00 0.00 0.00 87 1018.3
20260902052106 73 181 0.0 0.0 0.00 0.00 0.00 87 1020.4
20260902052024 72 0 0.0 0.0 0.00 0.00 0.00 87 1018.2
20260902051542 72 0 0.0 0.0 0.00 0.00 0.00 87 1018.3
20260902051116 73 181 0.0 0.0 0.00 0.00 0.00 87 1020.2
20260902051024 73 0 0.0 1.0 0.00 0.00 0.00 87 1018.2
20260902050527 73 0 0.0 1.0 0.00 0.00 0.00 87 1018.1
20260902050124 73 181 0.0 0.0 0.00 0.00 0.00 87 1020.2
20260902050107 73 0 0.0 0.0 0.00 0.00 0.00 87 1018.2
20260902045525 73 0 0.0 0.0 0.00 0.00 0.00 87 1018.1
20260902045127 73 181 0.0 0.0 0.00 0.00 0.00 87 1020.2
20260902045025 73 0 0.0 0.0 0.00 0.00 0.00 87 1018.1
20260902044605 73 0 0.0 1.0 0.00 0.00 0.00 87 1018.1
20260902044053 73 181 0.0 0.0 0.00 0.00 0.00 87 1020.1
20260902044023 73 0 0.0 1.0 0.00 0.00 0.00 87 1018.0
20260902043522 73 0 0.0 1.0 0.00 0.00 0.00 87 1018.0
20260902043041 73 0 0.0 0.0 0.00 0.00 0.00 87 1018.0
20260902042524 73 0 0.0 0.0 0.00 0.00 0.00 87 1018.0
20260902042026 73 0 0.0 0.0 0.00 0.00 0.00 87 1017.9
20260902042016 73 181 0.0 0.0 0.00 0.00 0.00 87 1020.0
20260902041552 73 0 0.0 0.0 0.00 0.00 0.00 87 1018.0
20260902041026 73 0 0.0 1.0 0.00 0.00 0.00 87 1017.9
20260902040947 74 181 0.0 0.0 0.00 0.00 0.00 87 1020.0
20260902040525 73 0 0.0 1.0 0.00 0.00 0.00 87 1018.0
20260902040053 73 0 0.0 1.0 0.00 0.00 0.00 87 1018.1
20260902035929 74 181 0.0 0.0 0.00 0.00 0.00 87 1020.1
20260902035524 73 0 0.0 1.0 0.00 0.00 0.00 87 1018.1
20260902035027 73 0 0.0 1.0 0.00 0.00 0.00 86 1018.1
20260902034936 74 181 0.0 0.0 0.00 0.00 0.00 86 1020.2
20260902034554 73 0 0.0 0.0 0.00 0.00 0.00 86 1018.2
20260902034024 74 0 0.0 0.0 0.00 0.00 0.00 87 1018.2
20260902034000 74 181 0.0 0.0 0.00 0.00 0.00 86 1020.3
20260902033523 74 0 0.0 0.0 0.00 0.00 0.00 86 1018.1
20260902033041 74 0 0.0 1.0 0.00 0.00 0.00 86 1018.1
20260902032953 74 181 0.0 0.0 0.00 0.00 0.00 86 1020.2
20260902032524 74 0 0.0 1.0 0.00 0.00 0.00 86 1018.1
20260902032027 74 0 0.0 1.0 0.00 0.00 0.00 86 1018.0
20260902031929 74 181 0.0 0.0 0.00 0.00 0.00 86 1020.1
20260902031553 74 0 0.0 1.0 0.00 0.00 0.00 86 1018.1
20260902031024 74 181 0.0 1.0 0.00 0.00 0.00 86 1018.1
20260902030910 74 181 0.0 0.0 0.00 0.00 0.00 86 1020.0
20260902030524 74 0 0.0 1.0 0.00 0.00 0.00 86 1018.0
20260902030047 74 0 0.0 1.0 0.00 0.00 0.00 86 1018.0
20260902025905 75 181 0.0 0.0 0.00 0.00 0.00 86 1020.1
20260902025524 74 0 0.0 1.0 0.00 0.00 0.00 86 1018.0
20260902025024 74 0 0.0 1.0 0.00 0.00 0.00 86 1018.0
20260902024918 75 181 0.0 0.0 0.00 0.00 0.00 86 1020.1
20260902024553 74 0 0.0 1.0 0.00 0.00 0.00 86 1018.1
20260902024023 74 0 0.0 1.0 0.00 0.00 0.00 86 1018.1
20260902023855 75 181 0.0 0.0 0.00 0.00 0.00 86 1020.2
20260902023524 74 0 0.0 1.0 0.00 0.00 0.00 86 1018.1
20260902023043 75 0 0.0 1.0 0.00 0.00 0.00 86 1018.0
20260902022920 75 181 0.0 0.0 0.00 0.00 0.00 86 1020.1
20260902022524 75 0 0.0 1.0 0.00 0.00 0.00 86 1018.0
20260902022029 75 0 0.0 1.0 0.00 0.00 0.00 86 1018.0
20260902021554 75 0 0.0 1.0 0.00 0.00 0.00 86 1018.0
20260902021027 75 0 0.0 0.0 0.00 0.00 0.00 85 1017.9
20260902020844 76 181 0.0 0.0 0.00 0.00 0.00 85 1020.0
20260902020523 75 0 0.0 0.0 0.00 0.00 0.00 85 1017.9
20260902020040 75 0 0.0 2.0 0.00 0.00 0.00 85 1017.9
20260902015908 76 181 0.0 0.0 0.00 0.00 0.00 85 1019.9
20260902015525 76 0 0.0 2.0 0.00 0.00 0.00 85 1017.8
20260902015024 76 181 0.0 2.0 0.00 0.00 0.00 85 1017.6
20260902014918 76 181 0.0 0.0 0.00 0.00 0.00 85 1019.7
20260902014542 76 0 0.0 1.0 0.00 0.00 0.00 85 1017.6
20260902014026 76 0 0.0 1.0 0.00 0.00 0.00 85 1017.6
20260902013925 77 181 0.0 0.0 0.00 0.00 0.00 85 1019.6
20260902013524 76 0 0.0 1.0 0.00 0.00 0.00 84 1017.5
20260902013047 77 181 0.0 1.0 0.00 0.00 0.00 84 1017.4
20260902012904 77 181 0.0 0.0 0.00 0.00 0.00 84 1019.5
20260902012525 77 0 0.0 1.0 0.00 0.00 0.00 84 1017.4
20260902012025 77 0 0.0 1.0 0.00 0.00 0.00 84 1017.4
20260902011832 77 181 0.0 0.0 0.00 0.00 0.00 84 1019.4
20260902011546 77 0 0.0 1.0 0.00 0.00 0.00 84 1017.3
20260902011023 77 0 0.0 1.0 0.00 0.00 0.00 83 1017.3
20260902010523 77 0 0.0 1.0 0.00 0.00 0.00 83 1017.3
20260902010044 78 0 0.0 1.0 0.00 0.00 0.00 82 1017.2
20260902005640 78 181 0.0 0.0 0.00 0.00 0.00 82 1019.1
20260902005523 78 0 0.0 1.0 0.00 0.00 0.00 82 1017.1
20260902005024 78 181 0.0 1.0 0.00 0.00 0.00 82 1017.1
20260902004638 79 181 0.0 0.0 0.00 0.00 0.00 82 1018.9
20260902004552 78 0 0.0 1.0 0.00 0.00 0.00 82 1017.0
20260902004025 78 181 0.0 1.0 0.00 0.00 0.00 83 1017.0
20260902003525 79 181 0.0 1.0 0.00 0.00 0.00 82 1017.0
20260902003048 79 0 0.0 1.0 0.00 0.00 0.00 83 1017.0
20260902002523 79 0 0.0 1.0 0.00 0.00 0.00 81 1017.0
20260902002024 80 0 0.0 1.0 0.00 0.00 0.00 80 1017.0
20260902001541 80 181 0.0 1.0 0.00 0.00 0.00 79 1017.0
20260902001402 81 181 0.0 0.0 0.00 0.00 0.00 79 1019.0
20260902001032 81 0 0.0 1.0 0.00 0.00 0.00 78 1017.0
20260902000528 81 181 0.0 1.0 0.00 0.00 0.00 77 1016.9
20260902000421 82 181 0.0 0.0 0.00 0.00 0.00 77 1019.0
20260902000053 81 0 0.0 1.0 0.00 0.00 0.00 77 1017.0
20260901235525 82 181 0.0 1.0 0.00 0.00 0.00 78 1017.0
20260901235430 83 181 0.0 0.0 0.00 0.00 0.00 78 1019.0
20260901235025 82 0 0.0 1.0 0.00 0.00 0.00 78 1017.0
20260901234548 83 0 0.0 1.0 0.00 0.00 0.00 78 1016.9
20260901234422 83 181 0.0 0.0 0.00 0.00 0.00 77 1018.9
20260901234025 83 0 0.0 1.0 0.00 0.00 0.00 77 1017.0
20260901233523 84 181 0.0 1.0 0.00 0.00 0.00 76 1017.0
20260901233438 84 181 0.0 0.0 0.00 0.00 0.00 76 1019.0
20260901233043 84 0 0.0 1.0 0.00 0.00 0.00 75 1017.0
20260901232524 85 248 0.0 1.0 0.00 0.00 0.00 74 1017.2
20260901232027 85 0 0.0 1.0 0.00 0.00 0.00 72 1017.1
20260901231551 86 0 0.0 1.0 0.00 0.00 0.00 70 1017.2
20260901231230 86 248 0.0 0.0 0.00 0.00 0.00 69 1019.2
20260901231025 86 0 0.0 1.0 0.00 0.00 0.00 68 1017.3
20260901230525 87 0 0.0 1.0 0.00 0.00 0.00 67 1017.2
20260901230235 88 248 0.0 0.0 0.00 0.00 0.00 67 1019.2
20260901230053 87 0 0.0 2.0 0.00 0.00 0.00 66 1017.2
20260901225525 88 0 0.0 2.0 0.00 0.00 0.00 63 1017.3
20260901225208 89 248 0.0 0.0 0.00 0.00 0.00 63 1019.1
20260901225023 89 0 0.0 2.0 0.00 0.00 0.00 63 1017.2
20260901224545 89 0 0.0 2.0 0.00 0.00 0.00 63 1017.2
20260901224149 90 272 0.0 0.0 0.00 0.00 0.00 63 1019.2
20260901224023 89 0 0.0 2.0 0.00 0.00 0.00 62 1017.2
20260901223523 89 0 0.0 1.0 0.00 0.00 0.00 61 1017.2
20260901223140 90 314 0.0 0.0 0.00 0.00 0.00 60 1019.3
20260901223050 90 0 0.0 1.0 0.00 0.00 0.00 59 1017.4
20260901222525 91 0 0.0 1.0 0.00 0.00 0.00 57 1017.3
20260901222026 92 0 0.0 2.0 0.00 0.00 0.00 54 1017.2
20260901221547 93 0 0.0 2.0 0.00 0.00 0.00 52 1017.2
20260901221025 93 0 0.0 2.0 0.00 0.00 0.00 48 1017.1
20260901220959 94 345 0.0 2.0 0.00 0.00 0.00 48 1019.1
20260901220525 93 48 0.0 2.0 0.00 0.00 0.00 49 1017.2
20260901220047 93 322 1.0 2.0 0.00 0.00 0.00 49 1017.1
20260901215959 94 322 0.0 1.0 0.00 0.00 0.00 49 1019.1
20260901215527 94 15 0.0 3.0 0.00 0.00 0.00 47 1017.2
20260901215021 94 0 0.0 3.0 0.00 0.00 0.00 46 1017.2
20260901214552 94 0 1.0 3.0 0.00 0.00 0.00 46 1017.2
20260901214026 94 0 0.0 3.0 0.00 0.00 0.00 48 1017.2
20260901213837 94 318 0.0 2.0 0.00 0.00 0.00 47 1019.1
20260901213524 94 351 0.0 3.0 0.00 0.00 0.00 47 1017.1
20260901213110 94 327 1.0 4.0 0.00 0.00 0.00 47 1017.1
20260901212525 94 299 0.0 6.0 0.00 0.00 0.00 49 1017.1
20260901212027 94 244 1.0 6.0 0.00 0.00 0.00 50 1017.1
20260901211654 94 302 0.0 2.0 0.00 0.00 0.00 48 1019.1
20260901211546 93 0 0.0 5.0 0.00 0.00 0.00 49 1017.2
20260901211024 93 0 0.0 3.0 0.00 0.00 0.00 48 1017.2
20260901210523 94 339 1.0 3.0 0.00 0.00 0.00 45 1017.2
20260901210042 94 26 0.0 2.0 0.00 0.00 0.00 46 1017.3
20260901205525 94 334 0.0 3.0 0.00 0.00 0.00 46 1017.4
20260901205453 94 337 0.0 6.0 0.00 0.00 0.00 46 1019.4
20260901205026 94 339 0.0 8.0 0.00 0.00 0.00 44 1017.5
20260901204550 96 347 2.0 9.0 0.00 0.00 0.00 42 1017.4
20260901204457 96 347 2.0 6.0 0.00 0.00 0.00 41 1019.4
20260901204026 97 266 4.0 9.0 0.00 0.00 0.00 41 1017.3
20260901203525 97 253 1.0 6.0 0.00 0.00 0.00 41 1017.3
20260901203444 97 322 2.0 5.0 0.00 0.00 0.00 41 1019.3
20260901203046 97 260 3.0 6.0 0.00 0.00 0.00 44 1017.3
20260901202524 97 262 1.0 7.0 0.00 0.00 0.00 41 1017.3
20260901202447 97 303 1.0 7.0 0.00 0.00 0.00 41 1019.4
20260901202026 97 250 2.0 8.0 0.00 0.00 0.00 39 1017.4
20260901201541 97 34 3.0 8.0 0.00 0.00 0.00 39 1017.5
20260901201438 97 338 2.0 7.0 0.00 0.00 0.00 41 1019.5
20260901201018 96 157 2.0 7.0 0.00 0.00 0.00 40 1017.4
20260901200524 96 156 4.0 9.0 0.00 0.00 0.00 42 1017.5
20260901200501 96 162 3.0 6.0 0.00 0.00 0.00 42 1019.6
20260901200048 96 296 4.0 9.0 0.00 0.00 0.00 43 1017.5
20260901195524 96 240 1.0 6.0 0.00 0.00 0.00 43 1017.5
20260901195451 96 178 1.0 5.0 0.00 0.00 0.00 43 1019.7
20260901195023 96 58 1.0 7.0 0.00 0.00 0.00 42 1017.6
20260901194549 96 235 2.0 8.0 0.00 0.00 0.00 44 1017.7
20260901194503 96 256 2.0 7.0 0.00 0.00 0.00 44 1019.7
20260901194024 96 7 1.0 8.0 0.00 0.00 0.00 43 1017.6
20260901193524 96 204 2.0 8.0 0.00 0.00 0.00 43 1017.6
20260901193058 96 240 3.0 8.0 0.00 0.00 0.00 44 1017.7
20260901192524 96 297 3.0 9.0 0.00 0.00 0.00 45 1017.7
20260901192339 96 277 2.0 9.0 0.00 0.00 0.00 45 1019.8
20260901192025 96 279 3.0 9.0 0.00 0.00 0.00 45 1017.9
20260901191550 95 182 3.0 11.0 0.00 0.00 0.00 46 1017.9
20260901191027 95 288 2.0 11.0 0.00 0.00 0.00 45 1018.0
20260901190524 96 245 3.0 9.0 0.00 0.00 0.00 45 1018.0
20260901190211 96 355 1.0 4.0 0.00 0.00 0.00 43 1020.1
20260901190054 95 181 1.0 6.0 0.00 0.00 0.00 42 1018.0
20260901185522 95 16 2.0 6.0 0.00 0.00 0.00 44 1018.1
20260901185234 96 296 1.0 4.0 0.00 0.00 0.00 43 1020.2
20260901185023 96 273 2.0 5.0 0.00 0.00 0.00 46 1018.1
20260901184553 94 189 1.0 4.0 0.00 0.00 0.00 46 1018.2
20260901184257 95 116 1.0 6.0 0.00 0.00 0.00 46 1020.3
20260901184025 94 44 1.0 4.0 0.00 0.00 0.00 45 1018.2
20260901183525 93 273 1.0 3.0 0.00 0.00 0.00 50 1018.2
20260901183053 92 278 0.0 7.0 0.00 0.00 0.00 49 1018.3
20260901182525 94 289 2.0 7.0 0.00 0.00 0.00 48 1018.3
20260901182131 95 321 1.0 4.0 0.00 0.00 0.00 46 1020.4
20260901182026 94 164 2.0 5.0 0.00 0.00 0.00 49 1018.3
20260901181547 93 230 2.0 4.0 0.00 0.00 0.00 49 1018.4
20260901181025 91 6 1.0 3.0 0.00 0.00 0.00 52 1018.4
20260901180526 92 24 0.0 6.0 0.00 0.00 0.00 51 1018.5
20260901180046 93 343 2.0 8.0 0.00 0.00 0.00 49 1018.5
20260901175525 93 257 3.0 8.0 0.00 0.00 0.00 48 1018.4
20260901175024 93 269 1.0 6.0 0.00 0.00 0.00 50 1018.5
20260901174934 93 305 1.0 5.0 0.00 0.00 0.00 49 1020.6
20260901174550 94 315 1.0 6.0 0.00 0.00 0.00 48 1018.5
20260901174024 94 203 1.0 6.0 0.00 0.00 0.00 48 1018.4
20260901173954 95 111 2.0 7.0 0.00 0.00 0.00 48 1020.5
20260901173527 94 359 2.0 7.0 0.00 0.00 0.00 48 1018.5
20260901173049 94 289 4.0 8.0 0.00 0.00 0.00 47 1018.6
20260901172949 95 245 3.0 7.0 0.00 0.00 0.00 47 1020.6
20260901172528 94 47 4.0 8.0 0.00 0.00 0.00 48 1018.6
20260901172025 94 0 1.0 8.0 0.00 0.00 0.00 49 1018.6
20260901171603 94 215 2.0 8.0 0.00 0.00 0.00 48 1018.5
20260901171022 94 218 3.0 9.0 0.00 0.00 0.00 48 1018.6
20260901170826 95 353 2.0 7.0 0.00 0.00 0.00 47 1020.6
20260901170524 94 22 2.0 9.0 0.00 0.00 0.00 49 1018.6
20260901170104 93 211 4.0 9.0 0.00 0.00 0.00 49 1018.7
20260901165831 93 148 2.0 7.0 0.00 0.00 0.00 48 1020.7
20260901165524 93 304 3.0 7.0 0.00 0.00 0.00 48 1018.9
20260901165026 93 210 3.0 9.0 0.00 0.00 0.00 48 1018.9
20260901164831 93 250 3.0 9.0 0.00 0.00 0.00 50 1021.0
20260901164556 93 243 3.0 10.0 0.00 0.00 0.00 49 1019.1
20260901164028 93 252 6.0 10.0 0.00 0.00 0.00 49 1019.0
20260901163832 93 246 1.0 9.0 0.00 0.00 0.00 49 1021.0
20260901163525 92 183 1.0 3.0 0.00 0.00 0.00 53 1019.1
20260901163046 92 189 1.0 9.0 0.00 0.00 0.00 49 1019.1
20260901162827 92 41 3.0 9.0 0.00 0.00 0.00 48 1021.2
20260901162525 93 0 4.0 10.0 0.00 0.00 0.00 48 1019.3
20260901162023 92 259 6.0 10.0 0.00 0.00 0.00 52 1019.3
20260901161544 92 228 1.0 8.0 0.00 0.00 0.00 51 1019.3
20260901161023 91 357 1.0 8.0 0.00 0.00 0.00 54 1019.4
20260901160735 92 307 2.0 7.0 0.00 0.00 0.00 54 1021.5
20260901160525 92 245 2.0 8.0 0.00 0.00 0.00 53 1019.4
20260901160049 91 251 1.0 6.0 0.00 0.00 0.00 56 1019.5
20260901155732 91 44 2.0 7.0 0.00 0.00 0.00 54 1021.5
20260901155524 91 239 1.0 9.0 0.00 0.00 0.00 55 1019.5
20260901155023 91 357 3.0 9.0 0.00 0.00 0.00 56 1019.6
20260901154552 91 210 2.0 5.0 0.00 0.00 0.00 58 1019.5
20260901154024 90 276 1.0 7.0 0.00 0.00 0.00 56 1019.7
20260901153604 90 341 1.0 8.0 0.00 0.00 0.00 56 1021.7
20260901153527 90 357 2.0 10.0 0.00 0.00 0.00 56 1019.7
20260901153056 90 139 2.0 10.0 0.00 0.00 0.00 55 1019.9
20260901152624 90 296 2.0 7.0 0.00 0.00 0.00 57 1021.9
20260901152525 89 110 1.0 8.0 0.00 0.00 0.00 58 1019.9
20260901152025 89 328 2.0 8.0 0.00 0.00 0.00 58 1019.9
20260901151614 90 248 1.0 5.0 0.00 0.00 0.00 61 1022.0
20260901151547 89 232 1.0 5.0 0.00 0.00 0.00 63 1019.9
20260901151029 89 17 1.0 6.0 0.00 0.00 0.00 62 1019.9
20260901150621 88 348 1.0 6.0 0.00 0.00 0.00 63 1022.1
20260901150525 88 25 0.0 6.0 0.00 0.00 0.00 62 1020.0